Погода в Дасяни

Китай     31°13′14″N   107°30′00″E
темп.,
°C
ветер,
м/с
пор.,
м/с
влажн.,
%
обл.,
%
осадки,
мм/ч
давл.,
гПа
погр.,
м
19 мая, ср
ср1923:00+19ссв2284100 0.0 100834
02:00+19с1286100 0.6 100724
05:00+19ссв2285100 0.7 100722
08:00+19с2287100 0.7 100986
11:00+22с1169100 0.0 1009458
14:00+23зсз1161100 0.1 1007949
17:00+23зюз1160100 0.0 1007948
20:00+21вюв1172100 0.0 100711
20 мая, чт
чт2023:00+19с117799 0.0 101011
02:00+18всв1181100 0.0 100811
05:00+18ссз1183100 0.0 100911
08:00+20ююз117997 0.0 1009173
11:00+24ююз116599 0.0 10081089
14:00+26юз2254100 0.1 10071486
17:00+25зюз4462100 0.0 1006936
20:00+21зюз118345 0.0 100715
21 мая, пт
пт2123:00+19зюз119012 0.0 100913
02:00+18з1191100 0.0 100811
05:00+18ссз009197 0.0 100711
08:00+20всв0185100 0.0 1008247
11:00+23в1174100 0.0 1007786
14:00+25вюв116791 0.1 1005899
17:00+23ю1276100 0.1 100430
20:00+22юв0179100 0.4 100411
22 мая, сб
сб2223:00+21ссз0182100 0.0 100611
02:00+21вюв1183100 0.0 100511
05:00+20вюв008595 0.0 100411
08:00+21вюв0085100 0.0 100540
11:00+23ююз1176100 0.0 1006433
14:00+24ююз116497 0.0 1004974
17:00+25ююв126043 0.0 10021139
20:00+22ююз2376100 0.1 100460
23 мая, вс
вс2323:00+21ю1178100 0.0 100521
02:00+21сз0077100 0.0 100511
05:00+21ююз118081 0.0 100511
08:00+21юз1282100 0.0 1006102
11:00+23юз2273100 0.0 1008644
14:00+20ююз2290100 0.5 1007136
17:00+20ю1190100 0.1 1008166
20:00+20в0092100 0.2 100923